Previsão horária em Ablovo

Hoje, 11 Abril, Domingo

Tempo Temperatura Precipitação Vento Pressão Humidade
00:00 +4°C° 0 mm 2 m/s 759 mmHg 64%
01:00 +3°C° 0 mm 2 m/s 759 mmHg 65%
02:00 +3°C° 0 mm 2 m/s 759 mmHg 66%
03:00 +2°C° 0 mm 2 m/s 759 mmHg 66%
04:00 +2°C° 0 mm 2 m/s 759 mmHg 67%
05:00 +2°C° 0 mm 2 m/s 760 mmHg 68%
06:00 +3°C° 0 mm 1 m/s 760 mmHg 69%
07:00 +5°C° 0 mm 1 m/s 760 mmHg 64%
08:00 +7°C° 0 mm 1 m/s 761 mmHg 59%
09:00 +8°C° 0 mm 1 m/s 761 mmHg 54%
10:00 +10°C° 0 mm 1 m/s 761 mmHg 50%
11:00 +11°C° 0 mm 1 m/s 761 mmHg 47%
12:00 +13°C° 0 mm 1 m/s 762 mmHg 43%
13:00 +13°C° 0 mm 1 m/s 762 mmHg 42%
14:00 +14°C° 0 mm 1 m/s 762 mmHg 40%
15:00 +15°C° 0 mm 1 m/s 761 mmHg 39%
16:00 +15°C° 0 mm 1 m/s 761 mmHg 43%
17:00 +14°C° 0 mm 1 m/s 761 mmHg 47%
18:00 +14°C° 0 mm 1 m/s 762 mmHg 50%
19:00 +12°C° 0 mm 1 m/s 762 mmHg 55%
20:00 +10°C° 0 mm 2 m/s 762 mmHg 59%
21:00 +8°C° 0 mm 2 m/s 763 mmHg 64%
22:00 +8°C° 0 mm 2 m/s 763 mmHg 67%
23:00 +7°C° 0 mm 2 m/s 763 mmHg 70%

Amanhã, 12 Abril, Segunda-feira

Tempo Temperatura Precipitação Vento Pressão Humidade
00:00 +6°C° 0 mm 2 m/s 763 mmHg 73%
01:00 +6°C° 0 mm 2 m/s 763 mmHg 75%
02:00 +5°C° 0 mm 2 m/s 764 mmHg 77%
03:00 +4°C° 0 mm 3 m/s 764 mmHg 79%
04:00 +4°C° 0 mm 3 m/s 764 mmHg 77%
05:00 +3°C° 0 mm 3 m/s 764 mmHg 75%
06:00 +3°C° 0 mm 4 m/s 764 mmHg 73%
07:00 +4°C° 0 mm 4 m/s 764 mmHg 68%
08:00 +6°C° 0 mm 5 m/s 763 mmHg 62%
09:00 +7°C° 0 mm 5 m/s 763 mmHg 57%
10:00 +8°C° 0 mm 5 m/s 763 mmHg 58%
11:00 +9°C° 0 mm 5 m/s 763 mmHg 59%
12:00 +12°C° 0 mm 5 m/s 763 mmHg 60%
13:00 +12°C° 0 mm 5 m/s 762 mmHg 61%
14:00 +13°C° 0 mm 5 m/s 762 mmHg 62%
15:00 +13°C° 0 mm 5 m/s 762 mmHg 64%
16:00 +13°C° 0 mm 5 m/s 761 mmHg 67%
17:00 +13°C° 0 mm 4 m/s 761 mmHg 70%
18:00 +12°C° 0 mm 4 m/s 761 mmHg 73%
19:00 +11°C° 0 mm 4 m/s 761 mmHg 79%
20:00 +10°C° 0 mm 4 m/s 761 mmHg 84%
21:00 +9°C° 0 mm 3 m/s 761 mmHg 90%
22:00 +9°C° 0 mm 3 m/s 761 mmHg 91%
23:00 +8°C° 0 mm 3 m/s 760 mmHg 92%

Depois de amanhã, 13 Abril, Terça-feira

Tempo Temperatura Precipitação Vento Pressão Humidade
00:00 +8°C° 0 mm 3 m/s 760 mmHg 93%
01:00 +8°C° 0 mm 3 m/s 760 mmHg 92%
02:00 +8°C° 0 mm 3 m/s 760 mmHg 91%
03:00 +7°C° 0 mm 3 m/s 760 mmHg 89%
04:00 +7°C° 0 mm 3 m/s 760 mmHg 87%
05:00 +7°C° 0 mm 3 m/s 760 mmHg 86%
06:00 +7°C° 0 mm 3 m/s 760 mmHg 84%
07:00 +9°C° 0 mm 3 m/s 760 mmHg 76%
08:00 +11°C° 0 mm 4 m/s 760 mmHg 68%
09:00 +13°C° 0 mm 4 m/s 760 mmHg 60%
10:00 +15°C° 0 mm 4 m/s 760 mmHg 52%
11:00 +16°C° 0 mm 5 m/s 759 mmHg 44%
12:00 +19°C° 0 mm 5 m/s 759 mmHg 36%
13:00 +19°C° 0 mm 5 m/s 759 mmHg 34%
14:00 +20°C° 0 mm 5 m/s 759 mmHg 33%
15:00 +20°C° 0 mm 5 m/s 759 mmHg 31%
16:00 +20°C° 0 mm 4 m/s 758 mmHg 35%
17:00 +19°C° 0 mm 3 m/s 758 mmHg 39%
18:00 +18°C° 0 mm 2 m/s 758 mmHg 43%
19:00 +16°C° 0 mm 2 m/s 758 mmHg 48%
20:00 +14°C° 0 mm 3 m/s 758 mmHg 52%
21:00 +12°C° 0 mm 3 m/s 758 mmHg 56%
22:00 +12°C° 0 mm 3 m/s 758 mmHg 59%
23:00 +11°C° 0 mm 3 m/s 758 mmHg 62%

14 Abril, Quarta-feira

Tempo Temperatura Precipitação Vento Pressão Humidade
00:00 +10°C° 0 mm 3 m/s 758 mmHg 65%
01:00 +10°C° 0 mm 3 m/s 758 mmHg 67%
02:00 +9°C° 0 mm 3 m/s 758 mmHg 68%
03:00 +9°C° 0 mm 3 m/s 757 mmHg 70%
04:00 +9°C° 0 mm 3 m/s 757 mmHg 70%
05:00 +8°C° 0 mm 3 m/s 757 mmHg 71%
06:00 +8°C° 0 mm 3 m/s 757 mmHg 71%
07:00 +10°C° 0 mm 3 m/s 757 mmHg 66%
08:00 +11°C° 0 mm 3 m/s 757 mmHg 60%
09:00 +13°C° 0 mm 3 m/s 757 mmHg 54%
10:00 +14°C° 0 mm 4 m/s 757 mmHg 50%
11:00 +17°C° 0 mm 4 m/s 756 mmHg 45%
12:00 +18°C° 0 mm 4 m/s 756 mmHg 40%
13:00 +19°C° 0 mm 4 m/s 756 mmHg 37%
14:00 +20°C° 0 mm 5 m/s 755 mmHg 34%
15:00 +20°C° 0 mm 5 m/s 755 mmHg 31%
16:00 +19°C° 0 mm 4 m/s 755 mmHg 35%
17:00 +19°C° 0 mm 3 m/s 754 mmHg 39%
18:00 +18°C° 0 mm 3 m/s 754 mmHg 43%
19:00 +16°C° 0 mm 3 m/s 754 mmHg 48%
20:00 +14°C° 0 mm 3 m/s 754 mmHg 54%
21:00 +12°C° 0 mm 3 m/s 754 mmHg 59%
22:00 +11°C° 0 mm 3 m/s 754 mmHg 61%
23:00 +11°C° 0 mm 3 m/s 754 mmHg 63%

15 Abril, Quinta-feira

Tempo Temperatura Precipitação Vento Pressão Humidade
00:00 +10°C° 0 mm 3 m/s 754 mmHg 65%
01:00 +10°C° 0 mm 3 m/s 753 mmHg 66%
02:00 +9°C° 0 mm 2 m/s 753 mmHg 67%
03:00 +9°C° 0 mm 2 m/s 753 mmHg 69%
04:00 +8°C° 0 mm 2 m/s 753 mmHg 70%
05:00 +8°C° 0 mm 2 m/s 753 mmHg 71%
06:00 +8°C° 0 mm 2 m/s 753 mmHg 72%
07:00 +10°C° 0 mm 2 m/s 753 mmHg 66%
08:00 +12°C° 0 mm 2 m/s 753 mmHg 60%
09:00 +14°C° 0 mm 2 m/s 753 mmHg 53%
10:00 +16°C° 0 mm 2 m/s 753 mmHg 50%
11:00 +17°C° 0 mm 2 m/s 753 mmHg 46%
12:00 +18°C° 0 mm 2 m/s 752 mmHg 43%
13:00 +19°C° 0 mm 2 m/s 752 mmHg 40%
14:00 +19°C° 0 mm 2 m/s 752 mmHg 38%
15:00 +20°C° 0 mm 2 m/s 752 mmHg 35%
16:00 +20°C° 0 mm 1 m/s 752 mmHg 38%
17:00 +19°C° 0 mm 1 m/s 751 mmHg 42%
18:00 +19°C° 0 mm 1 m/s 751 mmHg 45%
19:00 +18°C° 0 mm 1 m/s 751 mmHg 48%
20:00 +15°C° 0 mm 1 m/s 751 mmHg 50%
21:00 +14°C° 0 mm 1 m/s 751 mmHg 53%
22:00 +14°C° 0 mm 1 m/s 751 mmHg 55%
23:00 +13°C° 0 mm 2 m/s 752 mmHg 58%

16 Abril, Sexta-feira

Tempo Temperatura Precipitação Vento Pressão Humidade
00:00 +12°C° 0 mm 2 m/s 752 mmHg 61%
01:00 +11°C° 0 mm 3 m/s 752 mmHg 68%
02:00 +10°C° 0 mm 4 m/s 752 mmHg 74%
03:00 +8°C° 0 mm 6 m/s 753 mmHg 81%
04:00 +7°C° 0 mm 6 m/s 753 mmHg 82%
05:00 +7°C° 0 mm 6 m/s 753 mmHg 84%
06:00 +5°C° 0 mm 7 m/s 754 mmHg 85%
07:00 +5°C° 0 mm 7 m/s 754 mmHg 82%
08:00 +5°C° 0 mm 7 m/s 755 mmHg 80%
09:00 +5°C° 0 mm 7 m/s 756 mmHg 77%
10:00 +5°C° 0 mm 7 m/s 756 mmHg 72%
11:00 +6°C° 0 mm 7 m/s 757 mmHg 67%
12:00 +6°C° 0 mm 7 m/s 757 mmHg 61%
13:00 +8°C° 0 mm 7 m/s 757 mmHg 53%
14:00 +9°C° 0 mm 7 m/s 757 mmHg 45%
15:00 +10°C° 0 mm 7 m/s 757 mmHg 37%
16:00 +9°C° 0 mm 7 m/s 757 mmHg 39%
17:00 +9°C° 0 mm 6 m/s 758 mmHg 40%
18:00 +8°C° 0 mm 6 m/s 758 mmHg 41%
19:00 +7°C° 0 mm 6 m/s 758 mmHg 43%
20:00 +5°C° 0 mm 6 m/s 759 mmHg 45%
21:00 +4°C° 0 mm 6 m/s 759 mmHg 47%
22:00 +3°C° 0 mm 5 m/s 760 mmHg 49%
23:00 +2°C° 0 mm 5 m/s 760 mmHg 51%
Mostrar mais